Weather History for KHCO - January, 2013

Change the Weather History Date:

Friday, January 11, 2013

  Actual Average Record
Temperature  
Mean Temperature 20 °F -  
Max Temperature 33 °F 7 °F - (-1)
Min Temperature 8 °F -11 °F - (-1)
Degree Days  
Heating Degree Days 44    
Moisture  
Dew Point 17 °F    
Average Humidity 95    
Maximum Humidity 100    
Minimum Humidity 85    
Precipitation  
Precipitation 0.00 in - - ()
Sea Level Pressure  
Sea Level Pressure 29.56 in    
Wind  
Wind Speed 2 mph (SSW)    
Max Wind Speed 9 mph    
Max Gust Speed -    
Visibility 2 miles    
Events Snow    
Averages and records for this station are not official NWS values.
T = Trace of Precipitation, MM = Missing Value Source: NWS Daily Summary

Daily Weather History Graph

Daily Weather History Graph

Search for Another Location

Airport or City:

Trip Planner

Search our weather history database for the weather conditions in past years. The results will help you decide how hot, cold, wet, or windy it might be!

Date:

Astronomy

Jan. 11, 2013 Rise Set
Actual Time 8:17 AM CST 4:54 PM CST
Civil Twilight 7:41 AM CST 5:30 PM CST
Nautical Twilight 7:02 AM CST 6:09 PM CST
Astronomical Twilight 6:24 AM CST 6:47 PM CST
Moon 7:48 AM CST (1/11) 5:18 PM CST (1/11)
Length of Visible Light 9h 48m
Length of Day
8h 36m
Waning Crescent, 0% of the Moon is Illuminated
Jan 11
Waning Crescent
Jan 11
New
Jan 18
First Quarter
Jan 26
Full
Feb 3
Last Quarter

Hourly Weather History & Observations

Time (CST) Temp. Windchill Dew Point Humidity Pressure Visibility Wind Dir Wind Speed Gust Speed Precip Events Conditions
12:14 AM 33.8 °F 26.4 °F 33.8 °F 100% 29.57 in 2.5 mi SSW 9.2 mph - N/A   Overcast
12:35 AM 33.8 °F 27.0 °F 33.8 °F 100% 29.57 in 1.8 mi SSW 8.1 mph - N/A   Overcast
12:54 AM 33.8 °F 27.7 °F 33.8 °F 100% 29.57 in 1.8 mi SSW 6.9 mph - N/A   Overcast
1:14 AM 32.0 °F - 32.0 °F 100% 29.57 in 1.5 mi Calm Calm - N/A   Overcast
1:34 AM 30.2 °F - 28.4 °F 93% 29.57 in 1.5 mi Calm Calm - N/A   Overcast
1:54 AM 28.4 °F - 28.4 °F 100% 29.57 in 1.5 mi Calm Calm - N/A   Overcast
2:14 AM 28.4 °F - 28.4 °F 100% 29.57 in 1.5 mi Calm Calm - N/A   Overcast
2:34 AM 28.4 °F - 28.4 °F 100% 29.57 in 2.0 mi Calm Calm - N/A   Overcast
2:54 AM 26.6 °F - 26.6 °F 100% 29.57 in 2.5 mi Calm Calm - N/A   Overcast
3:14 AM 26.6 °F - 24.8 °F 93% 29.57 in 2.5 mi Calm Calm - N/A   Overcast
3:34 AM 24.8 °F - 24.8 °F 100% 29.55 in 2.5 mi Calm Calm - N/A   Overcast
3:54 AM 24.8 °F - 24.8 °F 100% 29.55 in 2.5 mi Calm Calm - N/A   Overcast
4:14 AM 24.8 °F - 24.8 °F 100% 29.55 in 2.5 mi Calm Calm - N/A   Overcast
4:34 AM 24.8 °F - 24.8 °F 100% 29.55 in 2.5 mi Calm Calm - N/A   Overcast
4:54 AM 24.8 °F - 24.8 °F 100% 29.54 in 2.5 mi Calm Calm - N/A   Overcast
5:14 AM 24.8 °F - 24.8 °F 100% 29.54 in 2.5 mi Calm Calm - N/A   Overcast
5:34 AM 24.8 °F - 24.8 °F 100% 29.53 in 3.0 mi Calm Calm - N/A   Overcast
5:54 AM 24.8 °F - 23.0 °F 93% 29.53 in 3.0 mi Calm Calm - N/A   Overcast
6:14 AM 24.8 °F - 23.0 °F 93% 29.53 in 4.0 mi Calm Calm - N/A   Overcast
6:54 AM 24.8 °F - 23.0 °F 93% 29.54 in 4.0 mi Calm Calm - N/A   Overcast
7:14 AM 23.0 °F - 21.2 °F 93% 29.55 in 3.0 mi Calm Calm - N/A   Overcast
7:34 AM 23.0 °F - 21.2 °F 93% 29.55 in 2.0 mi Calm Calm - N/A   Overcast
7:54 AM 21.2 °F - 21.2 °F 100% 29.55 in 1.8 mi Calm Calm - N/A Snow Light Snow
8:14 AM 21.2 °F - 21.2 °F 100% 29.56 in 2.5 mi Calm Calm - N/A Snow Light Snow
8:34 AM 21.2 °F - 19.4 °F 93% 29.56 in 2.0 mi Calm Calm - N/A Snow Light Snow
8:54 AM 21.2 °F - 19.4 °F 93% 29.55 in 2.5 mi Calm Calm - N/A   Overcast
9:14 AM 19.4 °F - 19.4 °F 100% 29.55 in 4.0 mi Calm Calm - N/A   Overcast
9:34 AM 19.4 °F - 17.6 °F 93% 29.56 in 7.0 mi Calm Calm - N/A   Overcast
9:54 AM 19.4 °F - 17.6 °F 93% 29.56 in 10.0 mi Calm Calm - N/A   Overcast
10:14 AM 17.6 °F - 17.6 °F 100% 29.57 in 7.0 mi Calm Calm - N/A   Overcast
10:34 AM 17.6 °F - 15.8 °F 93% 29.58 in 4.0 mi Calm Calm - N/A   Overcast
10:53 AM 17.6 °F - 15.8 °F 93% 29.58 in 2.5 mi Calm Calm - N/A   Overcast
11:14 AM 17.6 °F - 15.8 °F 93% 29.58 in 1.2 mi Calm Calm - N/A   Overcast
11:34 AM 17.6 °F - 15.8 °F 93% 29.57 in 0.8 mi Calm Calm - N/A   Overcast
11:54 AM 15.8 °F - 15.8 °F 100% 29.56 in 1.0 mi Calm Calm - N/A   Overcast
12:14 PM 15.8 °F - 14.0 °F 93% 29.53 in 1.0 mi Calm Calm - N/A   Overcast
12:34 PM 15.8 °F - 15.8 °F 100% 29.53 in 5.0 mi Calm Calm - N/A   Overcast
12:54 PM 17.6 °F - 15.8 °F 93% 29.54 in 10.0 mi Calm Calm - N/A   Overcast
1:14 PM 17.6 °F - 15.8 °F 93% 29.55 in 5.0 mi Calm Calm - N/A   Overcast
1:34 PM 17.6 °F - 15.8 °F 93% 29.55 in 10.0 mi Calm Calm - N/A   Overcast
2:14 PM 15.8 °F - 14.0 °F 93% 29.56 in 1.2 mi Calm Calm - N/A   Overcast
2:34 PM 15.8 °F - 12.2 °F 86% 29.56 in 0.8 mi Calm Calm - N/A Snow Light Snow
2:54 PM 14.0 °F - 12.2 °F 93% 29.56 in 0.8 mi Calm Calm - N/A Snow Light Snow
3:14 PM 14.0 °F - 12.2 °F 93% 29.55 in 0.5 mi Calm Calm - N/A Snow Light Snow
3:34 PM 14.0 °F - 12.2 °F 93% 29.56 in 0.8 mi Calm Calm - N/A Snow Light Snow
3:54 PM 14.0 °F - 12.2 °F 93% 29.55 in 0.8 mi Calm Calm - N/A Snow Light Snow
4:14 PM 12.2 °F - 12.2 °F 100% 29.55 in 0.5 mi Calm Calm - N/A Snow Light Snow
4:34 PM 12.2 °F - 10.4 °F 92% 29.56 in 0.8 mi Calm Calm - N/A Snow Light Snow
4:54 PM 12.2 °F - 10.4 °F 92% 29.56 in 0.8 mi Calm Calm - N/A Snow Light Snow
5:14 PM 12.2 °F - 10.4 °F 92% 29.55 in 2.0 mi Calm Calm - N/A Snow Light Snow
5:34 PM 12.2 °F - 10.4 °F 92% 29.54 in 2.0 mi Calm Calm - N/A Snow Light Snow
5:54 PM 12.2 °F - 10.4 °F 92% 29.53 in 1.5 mi Calm Calm - N/A Snow Light Snow
6:14 PM 12.2 °F - 10.4 °F 92% 29.55 in 1.2 mi Calm Calm - N/A Snow Light Snow
6:34 PM 12.2 °F - 10.4 °F 92% 29.57 in 1.5 mi Calm Calm - N/A Snow Light Snow
6:54 PM 12.2 °F - 10.4 °F 92% 29.56 in 1.8 mi Calm Calm - N/A Snow Light Snow
7:14 PM 12.2 °F - 10.4 °F 92% 29.58 in 1.2 mi Calm Calm - N/A Snow Light Snow
7:34 PM 12.2 °F - 10.4 °F 92% 29.58 in 1.2 mi Calm Calm - N/A Snow Light Snow
7:54 PM 12.2 °F - 10.4 °F 92% 29.58 in 2.0 mi Calm Calm - N/A Snow Light Snow
8:14 PM 12.2 °F - 10.4 °F 92% 29.58 in 2.5 mi Calm Calm - N/A Snow Light Snow
8:34 PM 12.2 °F - 10.4 °F 92% 29.58 in 1.2 mi Calm Calm - N/A Snow Light Snow
8:54 PM 12.2 °F - 10.4 °F 92% 29.58 in 1.8 mi Calm Calm - N/A Snow Light Snow
9:14 PM 12.2 °F - 10.4 °F 92% 29.58 in 1.2 mi Calm Calm - N/A Snow Light Snow
9:34 PM 10.4 °F - 8.6 °F 92% 29.58 in 1.5 mi Calm Calm - N/A Snow Light Snow
9:54 PM 10.4 °F - 8.6 °F 92% 29.58 in 1.0 mi Calm Calm - N/A Snow Light Snow
10:14 PM 10.4 °F - 8.6 °F 92% 29.57 in 1.5 mi Calm Calm - N/A Snow Light Snow
10:34 PM 10.4 °F - 8.6 °F 92% 29.57 in 1.2 mi Calm Calm - N/A Snow Light Snow
10:54 PM 10.4 °F - 6.8 °F 85% 29.57 in 1.2 mi Calm Calm - N/A Snow Light Snow
11:34 PM 8.6 °F - 6.8 °F 92% 29.57 in 1.2 mi Calm Calm - N/A Snow Light Snow
11:54 PM 8.6 °F - 6.8 °F 92% 29.56 in 1.2 mi Calm Calm - N/A Snow Light Snow